Simultaneous Nadir Overpasses (SNOs) Predictions

Prediction of SNOs between LANDSAT-8 and METOP-A Satellite Orbit:

Table of predicted SNOs for the next 14.0 days since TLE Epoch: 5/8/2021
Index Date (LANDSAT-8) Time (LANDSAT-8) Lat,Lon (LANDSAT-8) SZA (LANDSAT-8 ) Date (METOP-A) Time (METOP-A) Lat,Lon (METOP-A) SZA (METOP-A ) Distance(km) Time Diff (sec)
1 05/08/2021 14:24:47 -81.39,-171.41 113.19 05/08/2021 14:24:42 -81.38,-171.38 113.19 1.29 5
2 05/08/2021 15:14:14 81.38, -4.04 66.77 05/08/2021 15:15:23 81.39, -4.13 66.80 1.58 69
3 05/11/2021 09:09:36 81.40, 87.55 66.12 05/11/2021 09:08:23 81.39, 87.44 66.07 2.37 73
4 05/11/2021 09:59:04 -81.38,-105.25 113.95 05/11/2021 09:59:04 -81.39,-105.29 113.95 1.29 0
5 05/11/2021 10:48:30 81.39, 62.49 66.06 05/11/2021 10:49:44 81.38, 62.32 66.07 2.83 74
6 05/14/2021 04:43:54 81.39, 153.63 65.38 05/14/2021 04:42:46 81.40, 153.48 65.34 2.96 68
7 05/14/2021 05:33:21 -81.38, -38.75 114.64 05/14/2021 05:33:26 -81.39, -38.82 114.64 1.27 5
8 05/17/2021 00:18:11 81.38,-139.96 64.73 05/17/2021 00:17:08 81.40,-140.11 64.69 2.88 63
9 05/17/2021 01:07:38 -81.38, 27.68 115.29 05/17/2021 01:07:48 -81.38, 27.62 115.29 1.08 10
10 05/19/2021 19:52:27 81.38, -73.60 64.10 05/19/2021 19:51:29 81.39, -73.72 64.07 2.45 58



Historial Predications of SNOs between LANDSAT-8 and METOP-A
